Weather in Alekseyevskoye

Russia / Mari El Republic     56°01′54″N   48°29′54″E
temp.,
°C
wind,
m/s
gust,
m/s
humid.,
%
clouds,
%
prec.,
mm/h
press.,
hPa
HPBL,
m
1 march, mon
mon100:00−19nnw239845 0.0 101740
03:00−20nnw239924 0.0 101941
06:00−21nnw23985 0.0 102027
09:00−18nw12923 0.0 1021158
12:00−12wnw238651 0.0 1021386
15:00−10wsw359175 0.0 1020414
18:00−14sw3696100 0.0 1018134
21:00−11ssw399598 0.1 1015265
2 march, tue
tue200:00−7ssw51195100 0.5 1011487
03:00−5sw51295100 2.6 1007607
06:00−3wsw61396100 2.0 1002614
09:00+1w51199100 2.7 1000697
12:000w51099100 0.8 998739
15:000wnw51097100 1.1 998761
18:00−2wnw4119193 0.1 998423
21:00−3wnw4119393 0.2 1000473
3 march, wed
wed300:00−4wnw3109689 0.1 1000324
03:00−5wnw4109692 0.1 1001317
06:00−5wnw499495 0.1 1000523
09:00−5nw589297 0.1 1002565
12:00−4nw5889100 0.1 1003794
15:00−4nw5887100 0.3 1004872
18:00−6wnw4992100 0.1 1005693
21:00−8wnw41194100 0.3 1006500
4 march, thu
thu400:00−9wsw389695 0.1 1005234
03:00−6w4109598 0.6 1004512
06:00−6wsw4109599 0.2 1003397
09:00−5wsw4109499 0.3 1002471
12:00−2sw51090100 0.1 999789
15:00−2sw71395100 1.6 996957
18:00−1wsw71395100 1.3 9931014
21:00−1wsw61296100 2.2 992844
5 march, fri
fri500:00−1wsw61296100 1.0 990804
03:00−4wnw71385100 2.5 992765
06:00−9wnw7148997 0.0 997867
09:00−8wnw6118999 0.1 1003721
12:00−6wnw5887100 0.1 1006770
15:00−5wnw5785100 0.1 1009899
18:00−10wsw359493 0.0 101196
21:00−11w389687 0.1 1013186